Data supplied by UK-AIR on 14/3/2017
All Data GMT hour ending 
Status: R =Ratified P=Provisional,P*=As supplied
,,Luton A505 Roadside,,,,,,,,,,,,,,,,,,,,,,,
Date,time,"Nitric oxide",status,unit,"Nitrogen dioxide",status,unit,"Nitrogen oxides as nitrogen dioxide",status,unit
 
01-01-2016,01:00,15.30978,R,ugm-3,27.29520,R,ugm-3,50.76986,R,ugm-3
01-01-2016,02:00,29.04421,R,ugm-3,37.34029,R,ugm-3,81.87413,R,ugm-3
01-01-2016,03:00,27.06204,R,ugm-3,50.34991,R,ugm-3,91.84447,R,ugm-3
01-01-2016,04:00,15.87595,R,ugm-3,27.24978,R,ugm-3,51.59256,R,ugm-3
01-01-2016,05:00,15.87595,R,ugm-3,32.06832,R,ugm-3,56.41110,R,ugm-3
01-01-2016,06:00,15.35863,R,ugm-3,31.33392,R,ugm-3,54.88349,R,ugm-3
01-01-2016,07:00,25.10534,R,ugm-3,51.17611,R,ugm-3,89.67043,R,ugm-3
01-01-2016,08:00,45.04219,R,ugm-3,58.39006,R,ugm-3,127.45378,R,ugm-3
01-01-2016,09:00,34.33536,R,ugm-3,54.24089,R,ugm-3,106.88771,R,ugm-3
01-01-2016,10:00,20.45354,R,ugm-3,42.85434,R,ugm-3,74.21600,R,ugm-3
01-01-2016,11:00,21.15514,R,ugm-3,36.54835,R,ugm-3,68.98579,R,ugm-3
01-01-2016,12:00,18.60785,R,ugm-3,37.92727,R,ugm-3,66.45890,R,ugm-3
01-01-2016,13:00,22.59515,R,ugm-3,35.86894,R,ugm-3,70.51435,R,ugm-3
01-01-2016,14:00,14.36172,R,ugm-3,35.68295,R,ugm-3,57.70395,R,ugm-3
01-01-2016,15:00,17.20463,R,ugm-3,35.37886,R,ugm-3,61.75893,R,ugm-3
01-01-2016,16:00,15.58002,R,ugm-3,28.29113,R,ugm-3,52.18017,R,ugm-3
01-01-2016,17:00,10.55933,R,ugm-3,29.05566,R,ugm-3,45.24640,R,ugm-3
01-01-2016,18:00,10.11654,R,ugm-3,24.79843,R,ugm-3,40.31024,R,ugm-3
01-01-2016,19:00,13.29123,R,ugm-3,23.51514,R,ugm-3,43.89474,R,ugm-3
01-01-2016,20:00,11.99903,R,ugm-3,24.85055,R,ugm-3,43.24880,R,ugm-3
01-01-2016,21:00,8.56552,R,ugm-3,19.65524,R,ugm-3,32.78886,R,ugm-3
01-01-2016,22:00,9.63602,R,ugm-3,18.19027,R,ugm-3,32.96528,R,ugm-3
01-01-2016,23:00,9.45173,R,ugm-3,18.70808,R,ugm-3,33.20052,R,ugm-3
01-01-2016,24:00,6.35032,R,ugm-3,16.88164,R,ugm-3,26.61865,R,ugm-3
02-01-2016,01:00,4.82830,R,ugm-3,12.29355,R,ugm-3,19.69684,R,ugm-3
02-01-2016,02:00,4.38509,R,ugm-3,11.48329,R,ugm-3,18.20700,R,ugm-3
02-01-2016,03:00,4.84046,R,ugm-3,9.99951,R,ugm-3,17.42144,R,ugm-3
02-01-2016,04:00,5.54269,R,ugm-3,9.09968,R,ugm-3,17.59835,R,ugm-3
02-01-2016,05:00,4.06495,R,ugm-3,12.01337,R,ugm-3,18.24621,R,ugm-3
02-01-2016,06:00,7.75945,R,ugm-3,20.65022,R,ugm-3,32.54788,R,ugm-3
02-01-2016,07:00,9.16391,R,ugm-3,24.73580,R,ugm-3,38.78693,R,ugm-3
02-01-2016,08:00,21.20971,R,ugm-3,31.80966,R,ugm-3,64.33076,R,ugm-3
02-01-2016,09:00,22.13396,R,ugm-3,36.39631,R,ugm-3,70.33458,R,ugm-3
02-01-2016,10:00,9.16391,R,ugm-3,21.26318,R,ugm-3,35.31431,R,ugm-3
02-01-2016,11:00,24.64665,R,ugm-3,30.95429,R,ugm-3,68.74529,R,ugm-3
02-01-2016,12:00,29.11760,R,ugm-3,40.75585,R,ugm-3,85.40221,R,ugm-3
02-01-2016,13:00,24.64665,R,ugm-3,35.72168,R,ugm-3,73.51268,R,ugm-3
02-01-2016,14:00,10.12465,R,ugm-3,31.73794,R,ugm-3,47.26218,R,ugm-3
02-01-2016,15:00,16.29535,R,ugm-3,29.39799,R,ugm-3,54.38385,R,ugm-3
02-01-2016,16:00,20.10149,R,ugm-3,42.63202,R,ugm-3,73.45387,R,ugm-3
02-01-2016,17:00,46.07838,R,ugm-3,62.12900,R,ugm-3,132.78153,R,ugm-3
02-01-2016,18:00,132.28614,R,ugm-3,104.75145,R,ugm-3,307.58738,R,ugm-3
02-01-2016,19:00,26.67912,R,ugm-3,48.02574,R,ugm-3,88.93316,R,ugm-3
02-01-2016,20:00,24.05512,R,ugm-3,40.63106,R,ugm-3,77.51506,R,ugm-3
02-01-2016,21:00,15.85162,R,ugm-3,29.60789,R,ugm-3,53.91338,R,ugm-3
02-01-2016,22:00,11.82409,R,ugm-3,29.01454,R,ugm-3,47.14456,R,ugm-3
02-01-2016,23:00,13.26535,R,ugm-3,28.92369,R,ugm-3,49.26361,R,ugm-3
02-01-2016,24:00,5.54269,R,ugm-3,18.75254,R,ugm-3,27.25121,R,ugm-3
03-01-2016,01:00,2.36488,R,ugm-3,10.66856,R,ugm-3,14.29466,R,ugm-3
03-01-2016,02:00,1.92126,R,ugm-3,5.53669,R,ugm-3,8.48258,R,ugm-3
03-01-2016,03:00,1.40415,R,ugm-3,4.09132,R,ugm-3,6.24431,R,ugm-3
03-01-2016,04:00,1.97032,R,ugm-3,4.67606,R,ugm-3,7.69718,R,ugm-3
03-01-2016,05:00,8.75729,R,ugm-3,17.90961,R,ugm-3,31.33727,R,ugm-3
03-01-2016,06:00,12.52663,R,ugm-3,23.08627,R,ugm-3,42.29350,R,ugm-3
03-01-2016,07:00,15.51984,R,ugm-3,32.63442,R,ugm-3,56.43118,R,ugm-3
03-01-2016,08:00,25.57027,R,ugm-3,47.56005,R,ugm-3,86.76726,R,ugm-3
03-01-2016,09:00,24.27714,R,ugm-3,51.54522,R,ugm-3,88.76964,R,ugm-3
03-01-2016,10:00,23.09470,R,ugm-3,41.16513,R,ugm-3,76.57650,R,ugm-3
03-01-2016,11:00,25.38536,R,ugm-3,49.78763,R,ugm-3,88.71131,R,ugm-3
03-01-2016,12:00,23.50100,R,ugm-3,37.65617,R,ugm-3,73.69054,R,ugm-3
03-01-2016,13:00,29.19119,R,ugm-3,53.02311,R,ugm-3,97.78230,R,ugm-3
03-01-2016,14:00,31.44537,R,ugm-3,39.78861,R,ugm-3,88.00417,R,ugm-3
03-01-2016,15:00,32.99763,R,ugm-3,56.72905,R,ugm-3,107.32472,R,ugm-3
03-01-2016,16:00,34.21687,R,ugm-3,50.61862,R,ugm-3,103.08375,R,ugm-3
03-01-2016,17:00,41.86594,R,ugm-3,67.93009,R,ugm-3,132.12363,R,ugm-3
03-01-2016,18:00,46.15260,R,ugm-3,63.89089,R,ugm-3,134.65721,R,ugm-3
03-01-2016,19:00,45.89347,R,ugm-3,63.75749,R,ugm-3,134.12649,R,ugm-3
03-01-2016,20:00,56.79425,R,ugm-3,71.07663,R,ugm-3,158.15993,R,ugm-3
03-01-2016,21:00,43.34368,R,ugm-3,60.83423,R,ugm-3,127.29361,R,ugm-3
03-01-2016,22:00,19.14075,R,ugm-3,37.62605,R,ugm-3,66.97479,R,ugm-3
03-01-2016,23:00,15.77803,R,ugm-3,36.77451,R,ugm-3,60.96715,R,ugm-3
03-01-2016,24:00,10.75266,R,ugm-3,26.10132,R,ugm-3,42.58851,R,ugm-3
04-01-2016,01:00,11.34087,R,ugm-3,30.40174,R,ugm-3,47.79083,R,ugm-3
04-01-2016,02:00,5.42409,R,ugm-3,28.39106,R,ugm-3,36.70789,R,ugm-3
04-01-2016,03:00,6.32412,R,ugm-3,24.90840,R,ugm-3,34.60525,R,ugm-3
04-01-2016,04:00,11.79728,R,ugm-3,28.48430,R,ugm-3,46.57320,R,ugm-3
04-01-2016,05:00,33.13608,R,ugm-3,45.34394,R,ugm-3,96.15189,R,ugm-3
04-01-2016,06:00,97.22704,R,ugm-3,93.80621,R,ugm-3,242.88559,R,ugm-3
04-01-2016,07:00,82.10072,R,ugm-3,86.75674,R,ugm-3,212.64275,R,ugm-3
04-01-2016,08:00,84.54168,R,ugm-3,83.60350,R,ugm-3,213.23228,R,ugm-3
04-01-2016,09:00,74.40893,R,ugm-3,98.13803,R,ugm-3,212.23013,R,ugm-3
04-01-2016,10:00,85.31844,R,ugm-3,95.67712,R,ugm-3,226.49690,R,ugm-3
04-01-2016,11:00,73.15134,R,ugm-3,85.44620,R,ugm-3,197.61002,R,ugm-3
04-01-2016,12:00,61.35375,R,ugm-3,78.42111,R,ugm-3,172.49555,R,ugm-3
04-01-2016,13:00,58.58007,R,ugm-3,68.52535,R,ugm-3,158.34687,R,ugm-3
04-01-2016,14:00,82.28594,R,ugm-3,84.17391,R,ugm-3,210.34392,R,ugm-3
04-01-2016,15:00,104.84492,R,ugm-3,94.09309,R,ugm-3,254.85306,R,ugm-3
04-01-2016,16:00,140.64399,R,ugm-3,112.18486,R,ugm-3,327.83597,R,ugm-3
04-01-2016,17:00,89.09059,R,ugm-3,98.02853,R,ugm-3,234.63219,R,ugm-3
04-01-2016,18:00,95.78422,R,ugm-3,103.21045,R,ugm-3,250.07754,R,ugm-3
04-01-2016,19:00,70.37734,R,ugm-3,92.11652,R,ugm-3,200.02694,R,ugm-3
04-01-2016,20:00,50.14801,R,ugm-3,87.23152,R,ugm-3,164.12406,R,ugm-3
04-01-2016,21:00,26.99719,R,ugm-3,62.24423,R,ugm-3,103.63933,R,ugm-3
04-01-2016,22:00,39.12749,R,ugm-3,70.40869,R,ugm-3,130.40333,R,ugm-3
04-01-2016,23:00,21.63473,R,ugm-3,51.65997,R,ugm-3,84.83276,R,ugm-3
04-01-2016,24:00,8.46886,R,ugm-3,26.80751,R,ugm-3,39.79291,R,ugm-3
05-01-2016,01:00,10.26528,R,ugm-3,22.13018,R,ugm-3,37.87005,R,ugm-3
05-01-2016,02:00,5.97124,R,ugm-3,19.89638,R,ugm-3,29.05215,R,ugm-3
05-01-2016,03:00,10.43772,R,ugm-3,22.49530,R,ugm-3,38.49958,R,ugm-3
05-01-2016,04:00,18.76594,R,ugm-3,26.84959,R,ugm-3,55.62363,R,ugm-3
05-01-2016,05:00,55.89058,R,ugm-3,53.47972,R,ugm-3,139.17741,R,ugm-3
05-01-2016,06:00,94.64388,R,ugm-3,84.28435,R,ugm-3,229.40294,R,ugm-3
05-01-2016,07:00,147.24034,R,ugm-3,96.28433,R,ugm-3,322.04970,R,ugm-3
05-01-2016,08:00,164.00748,R,ugm-3,102.22552,R,ugm-3,353.70014,R,ugm-3
05-01-2016,09:00,212.68055,R,ugm-3,124.25656,R,ugm-3,450.36219,R,ugm-3
05-01-2016,10:00,100.93619,R,ugm-3,86.91834,R,ugm-3,241.68502,R,ugm-3
05-01-2016,11:00,149.12750,R,ugm-3,107.26782,R,ugm-3,335.92680,R,ugm-3
05-01-2016,12:00,121.47860,R,ugm-3,95.39693,R,ugm-3,281.66153,R,ugm-3
05-01-2016,13:00,97.34584,R,ugm-3,86.04577,R,ugm-3,235.30731,R,ugm-3
05-01-2016,14:00,124.14377,R,ugm-3,106.95800,R,ugm-3,297.30912,R,ugm-3
05-01-2016,15:00,158.23341,R,ugm-3,106.76818,R,ugm-3,349.38937,R,ugm-3
05-01-2016,16:00,167.22769,R,ugm-3,127.63929,R,ugm-3,384.05152,R,ugm-3
05-01-2016,17:00,179.66452,R,ugm-3,117.30893,R,ugm-3,392.79068,R,ugm-3
05-01-2016,18:00,231.92702,R,ugm-3,150.36936,R,ugm-3,505.98582,R,ugm-3
05-01-2016,19:00,215.38221,R,ugm-3,148.04376,R,ugm-3,478.29187,R,ugm-3
05-01-2016,20:00,158.12240,R,ugm-3,112.19394,R,ugm-3,354.64492,R,ugm-3
05-01-2016,21:00,192.21174,R,ugm-3,116.43396,R,ugm-3,411.15451,R,ugm-3
05-01-2016,22:00,137.87561,R,ugm-3,104.20734,R,ugm-3,315.61366,R,ugm-3
05-01-2016,23:00,104.48944,R,ugm-3,83.00585,R,ugm-3,243.22075,R,ugm-3
05-01-2016,24:00,42.86159,R,ugm-3,64.83566,R,ugm-3,130.55586,R,ugm-3
06-01-2016,01:00,37.83518,R,ugm-3,64.11911,R,ugm-3,122.13225,R,ugm-3
06-01-2016,02:00,61.64240,R,ugm-3,63.54600,R,ugm-3,158.06303,R,ugm-3
06-01-2016,03:00,73.60816,R,ugm-3,59.93345,R,ugm-3,172.79772,R,ugm-3
06-01-2016,04:00,97.27973,R,ugm-3,59.98126,R,ugm-3,209.14144,R,ugm-3
06-01-2016,05:00,333.44040,R,ugm-3,120.88482,R,ugm-3,632.15297,R,ugm-3
06-01-2016,06:00,470.76563,R,ugm-3,167.98109,R,ugm-3,889.81166,R,ugm-3
06-01-2016,07:00,485.58325,R,ugm-3,172.15082,R,ugm-3,916.70141,R,ugm-3
06-01-2016,08:00,447.61232,R,ugm-3,155.55558,R,ugm-3,841.88489,R,ugm-3
06-01-2016,09:00,493.06642,R,ugm-3,159.31699,R,ugm-3,915.34163,R,ugm-3
06-01-2016,10:00,262.20304,R,ugm-3,123.85828,R,ugm-3,525.89734,R,ugm-3
06-01-2016,11:00,176.55594,R,ugm-3,98.63623,R,ugm-3,369.35156,R,ugm-3
06-01-2016,12:00,175.74052,R,ugm-3,108.39572,R,ugm-3,377.86075,R,ugm-3
06-01-2016,13:00,179.48210,R,ugm-3,105.31898,R,ugm-3,380.52104,R,ugm-3
06-01-2016,14:00,200.74576,R,ugm-3,123.24198,R,ugm-3,431.04786,R,ugm-3
06-01-2016,15:00,136.36201,R,ugm-3,105.07036,R,ugm-3,314.15586,R,ugm-3
06-01-2016,16:00,139.21458,R,ugm-3,96.02710,R,ugm-3,309.48649,R,ugm-3
06-01-2016,17:00,197.18971,R,ugm-3,111.97066,R,ugm-3,414.32400,R,ugm-3
06-01-2016,18:00,182.44569,R,ugm-3,119.44901,R,ugm-3,399.19517,R,ugm-3
06-01-2016,19:00,106.87397,R,ugm-3,94.02519,R,ugm-3,257.89632,R,ugm-3
06-01-2016,20:00,135.69501,R,ugm-3,97.05125,R,ugm-3,305.11403,R,ugm-3
06-01-2016,21:00,120.84030,R,ugm-3,94.00320,R,ugm-3,279.28907,R,ugm-3
06-01-2016,22:00,92.94537,R,ugm-3,80.86958,R,ugm-3,223.38383,R,ugm-3
06-01-2016,23:00,57.67858,R,ugm-3,71.12062,R,ugm-3,159.55988,R,ugm-3
06-01-2016,24:00,24.89455,R,ugm-3,61.64227,R,ugm-3,99.81338,R,ugm-3
07-01-2016,01:00,9.98588,R,ugm-3,50.14129,R,ugm-3,65.45276,R,ugm-3
07-01-2016,02:00,2.02686,R,ugm-3,31.35289,R,ugm-3,34.46070,R,ugm-3
07-01-2016,03:00,3.41105,R,ugm-3,20.73437,R,ugm-3,25.96458,R,ugm-3
07-01-2016,04:00,9.56586,R,ugm-3,23.83501,R,ugm-3,38.50245,R,ugm-3
07-01-2016,05:00,23.72864,R,ugm-3,42.45607,R,ugm-3,78.83947,R,ugm-3
07-01-2016,06:00,56.31840,R,ugm-3,64.52297,R,ugm-3,150.87665,R,ugm-3
07-01-2016,07:00,34.10991,R,ugm-3,58.65351,R,ugm-3,110.95464,R,ugm-3
07-01-2016,08:00,61.50904,R,ugm-3,85.36731,R,ugm-3,179.67985,R,ugm-3
07-01-2016,09:00,69.99931,R,ugm-3,89.18561,R,ugm-3,196.51639,R,ugm-3
07-01-2016,10:00,25.32269,R,ugm-3,41.19429,R,ugm-3,80.02187,R,ugm-3
07-01-2016,11:00,23.24687,R,ugm-3,47.33485,R,ugm-3,82.97955,R,ugm-3
07-01-2016,12:00,30.77307,R,ugm-3,49.51606,R,ugm-3,96.70078,R,ugm-3
07-01-2016,13:00,36.37158,R,ugm-3,59.50313,R,ugm-3,115.27211,R,ugm-3
07-01-2016,14:00,33.10896,R,ugm-3,50.66595,R,ugm-3,101.43231,R,ugm-3
07-01-2016,15:00,36.29768,R,ugm-3,59.67574,R,ugm-3,115.33140,R,ugm-3
07-01-2016,16:00,38.29959,R,ugm-3,59.56338,R,ugm-3,118.28860,R,ugm-3
07-01-2016,17:00,33.36871,R,ugm-3,53.81584,R,ugm-3,104.98047,R,ugm-3
07-01-2016,18:00,27.84410,R,ugm-3,45.13500,R,ugm-3,87.82869,R,ugm-3
07-01-2016,19:00,16.53546,R,ugm-3,34.97293,R,ugm-3,60.32694,R,ugm-3
07-01-2016,20:00,10.41839,R,ugm-3,32.99684,R,ugm-3,48.97148,R,ugm-3
07-01-2016,21:00,11.27123,R,ugm-3,27.48980,R,ugm-3,44.77210,R,ugm-3
07-01-2016,22:00,6.11770,R,ugm-3,19.65954,R,ugm-3,29.03988,R,ugm-3
07-01-2016,23:00,9.19510,R,ugm-3,21.74273,R,ugm-3,35.84168,R,ugm-3
07-01-2016,24:00,7.34130,R,ugm-3,16.42312,R,ugm-3,27.67961,R,ugm-3
08-01-2016,01:00,3.51281,R,ugm-3,13.50671,R,ugm-3,18.89295,R,ugm-3
08-01-2016,02:00,3.52518,R,ugm-3,10.00955,R,ugm-3,15.41475,R,ugm-3
08-01-2016,03:00,7.34722,R,ugm-3,20.09751,R,ugm-3,31.36309,R,ugm-3
08-01-2016,04:00,13.32148,R,ugm-3,24.63252,R,ugm-3,45.05850,R,ugm-3
08-01-2016,05:00,54.54755,R,ugm-3,52.60427,R,ugm-3,136.24268,R,ugm-3
08-01-2016,06:00,92.50819,R,ugm-3,91.74884,R,ugm-3,233.59275,R,ugm-3
08-01-2016,07:00,118.78007,R,ugm-3,110.69407,R,ugm-3,292.82096,R,ugm-3
08-01-2016,08:00,139.15191,R,ugm-3,104.89202,R,ugm-3,318.25530,R,ugm-3
08-01-2016,09:00,93.51008,R,ugm-3,105.74595,R,ugm-3,249.12608,R,ugm-3
08-01-2016,10:00,76.58921,R,ugm-3,86.75100,R,ugm-3,204.18615,R,ugm-3
08-01-2016,11:00,53.61987,R,ugm-3,69.14500,R,ugm-3,151.36099,R,ugm-3
08-01-2016,12:00,43.26697,R,ugm-3,71.08667,R,ugm-3,137.42843,R,ugm-3
08-01-2016,13:00,36.17950,R,ugm-3,52.60666,R,ugm-3,108.08111,R,ugm-3
08-01-2016,14:00,41.11475,R,ugm-3,51.32385,R,ugm-3,114.36559,R,ugm-3
08-01-2016,15:00,64.15831,R,ugm-3,72.66974,R,ugm-3,171.04444,R,ugm-3
08-01-2016,16:00,74.36278,R,ugm-3,91.58771,R,ugm-3,205.60905,R,ugm-3
08-01-2016,17:00,65.79102,R,ugm-3,90.38332,R,ugm-3,191.26148,R,ugm-3
08-01-2016,18:00,82.67479,R,ugm-3,94.19828,R,ugm-3,220.96451,R,ugm-3
08-01-2016,19:00,62.45138,R,ugm-3,84.65442,R,ugm-3,180.41186,R,ugm-3
08-01-2016,20:00,50.87394,R,ugm-3,67.48591,R,ugm-3,145.49153,R,ugm-3
08-01-2016,21:00,39.81600,R,ugm-3,63.33483,R,ugm-3,124.38518,R,ugm-3
08-01-2016,22:00,24.60206,R,ugm-3,52.69081,R,ugm-3,90.41344,R,ugm-3
08-01-2016,23:00,11.50322,R,ugm-3,31.03701,R,ugm-3,48.67504,R,ugm-3
08-01-2016,24:00,7.27301,R,ugm-3,25.90290,R,ugm-3,37.05469,R,ugm-3
09-01-2016,01:00,2.82514,R,ugm-3,24.59029,R,ugm-3,28.92210,R,ugm-3
09-01-2016,02:00,,,,,,,,,
09-01-2016,03:00,5.64965,R,ugm-3,23.01407,R,ugm-3,31.67674,R,ugm-3
09-01-2016,04:00,3.90311,R,ugm-3,19.51133,R,ugm-3,25.49602,R,ugm-3
09-01-2016,05:00,17.54421,R,ugm-3,33.06521,R,ugm-3,59.96596,R,ugm-3
09-01-2016,06:00,38.13589,R,ugm-3,51.65137,R,ugm-3,110.12558,R,ugm-3
09-01-2016,07:00,57.46405,R,ugm-3,69.20333,R,ugm-3,157.31364,R,ugm-3
09-01-2016,08:00,50.95969,R,ugm-3,58.55453,R,ugm-3,136.69163,R,ugm-3
09-01-2016,09:00,32.48624,R,ugm-3,56.86675,R,ugm-3,106.67829,R,ugm-3
09-01-2016,10:00,39.02771,R,ugm-3,56.88110,R,ugm-3,116.72274,R,ugm-3
09-01-2016,11:00,45.16130,R,ugm-3,58.82754,R,ugm-3,128.07391,R,ugm-3
09-01-2016,12:00,34.79063,R,ugm-3,61.89185,R,ugm-3,115.23673,R,ugm-3
09-01-2016,13:00,35.42239,R,ugm-3,54.26671,R,ugm-3,108.58028,R,ugm-3
09-01-2016,14:00,37.68966,R,ugm-3,60.65589,R,ugm-3,118.44591,R,ugm-3
09-01-2016,15:00,36.38935,R,ugm-3,59.20287,R,ugm-3,114.99910,R,ugm-3
09-01-2016,16:00,42.41038,R,ugm-3,67.79956,R,ugm-3,132.82791,R,ugm-3
09-01-2016,17:00,21.66966,R,ugm-3,44.15293,R,ugm-3,77.37927,R,ugm-3
09-01-2016,18:00,24.27183,R,ugm-3,39.98512,R,ugm-3,77.20141,R,ugm-3
09-01-2016,19:00,15.72284,R,ugm-3,30.92513,R,ugm-3,55.03314,R,ugm-3
09-01-2016,20:00,6.69052,R,ugm-3,19.57587,R,ugm-3,29.83452,R,ugm-3
09-01-2016,21:00,11.74551,R,ugm-3,20.73915,R,ugm-3,38.74868,R,ugm-3
09-01-2016,22:00,10.85338,R,ugm-3,18.30358,R,ugm-3,34.94520,R,ugm-3
09-01-2016,23:00,8.80937,R,ugm-3,18.94188,R,ugm-3,32.44939,R,ugm-3
09-01-2016,24:00,4.57167,R,ugm-3,10.93854,R,ugm-3,17.94833,R,ugm-3
10-01-2016,01:00,3.32613,R,ugm-3,9.67470,R,ugm-3,14.77470,R,ugm-3
10-01-2016,02:00,2.58150,R,ugm-3,5.73240,R,ugm-3,9.69064,R,ugm-3
10-01-2016,03:00,2.38297,R,ugm-3,3.97178,R,ugm-3,7.62562,R,ugm-3
10-01-2016,04:00,2.82950,R,ugm-3,5.13363,R,ugm-3,9.47213,R,ugm-3
10-01-2016,05:00,6.85048,R,ugm-3,13.68346,R,ugm-3,24.18739,R,ugm-3
10-01-2016,06:00,3.53672,R,ugm-3,5.18096,R,ugm-3,10.60386,R,ugm-3
10-01-2016,07:00,12.58432,R,ugm-3,17.04420,R,ugm-3,36.33989,R,ugm-3
10-01-2016,08:00,5.99452,R,ugm-3,10.34902,R,ugm-3,19.54049,R,ugm-3
10-01-2016,09:00,13.55223,R,ugm-3,18.30119,R,ugm-3,39.08098,R,ugm-3
10-01-2016,10:00,11.39315,R,ugm-3,17.67963,R,ugm-3,35.14888,R,ugm-3
10-01-2016,11:00,14.22265,R,ugm-3,17.98802,R,ugm-3,39.79578,R,ugm-3
10-01-2016,12:00,17.05215,R,ugm-3,24.90888,R,ugm-3,51.05514,R,ugm-3
10-01-2016,13:00,21.07345,R,ugm-3,31.55099,R,ugm-3,63.86316,R,ugm-3
10-01-2016,14:00,24.53595,R,ugm-3,31.84265,R,ugm-3,69.46391,R,ugm-3
10-01-2016,15:00,38.83313,R,ugm-3,46.97578,R,ugm-3,106.51908,R,ugm-3
10-01-2016,16:00,20.44044,R,ugm-3,31.92680,R,ugm-3,63.26837,R,ugm-3
10-01-2016,17:00,47.17257,R,ugm-3,59.86555,R,ugm-3,132.19583,R,ugm-3
10-01-2016,18:00,49.77912,R,ugm-3,60.87248,R,ugm-3,137.19940,R,ugm-3
10-01-2016,19:00,31.27480,R,ugm-3,54.03721,R,ugm-3,101.99123,R,ugm-3
10-01-2016,20:00,38.86992,R,ugm-3,59.42950,R,ugm-3,119.02922,R,ugm-3
10-01-2016,21:00,21.29671,R,ugm-3,44.43455,R,ugm-3,77.08905,R,ugm-3
10-01-2016,22:00,15.97230,R,ugm-3,45.80724,R,ugm-3,70.29776,R,ugm-3
10-01-2016,23:00,15.11634,R,ugm-3,51.52801,R,ugm-3,74.70608,R,ugm-3
10-01-2016,24:00,13.85033,R,ugm-3,47.51176,R,ugm-3,68.74864,R,ugm-3
11-01-2016,01:00,12.22188,R,ugm-3,39.70350,R,ugm-3,58.44345,R,ugm-3
11-01-2016,02:00,7.04319,R,ugm-3,19.89526,R,ugm-3,30.69467,R,ugm-3
11-01-2016,03:00,17.58818,R,ugm-3,33.22682,R,ugm-3,60.19498,R,ugm-3
11-01-2016,04:00,15.27787,R,ugm-3,29.48406,R,ugm-3,52.90979,R,ugm-3
11-01-2016,05:00,85.51894,R,ugm-3,72.03288,R,ugm-3,203.16009,R,ugm-3
11-01-2016,06:00,166.52889,R,ugm-3,126.43585,R,ugm-3,381.77660,R,ugm-3
11-01-2016,07:00,168.16847,R,ugm-3,127.20563,R,ugm-3,385.06036,R,ugm-3
11-01-2016,08:00,92.78540,R,ugm-3,106.27667,R,ugm-3,248.54563,R,ugm-3
11-01-2016,09:00,116.89446,R,ugm-3,97.67520,R,ugm-3,276.91088,R,ugm-3
11-01-2016,10:00,82.94763,R,ugm-3,90.66589,R,ugm-3,217.85048,R,ugm-3
11-01-2016,11:00,89.91599,R,ugm-3,84.40054,R,ugm-3,222.26979,R,ugm-3
11-01-2016,12:00,64.46514,R,ugm-3,75.71014,R,ugm-3,174.55531,R,ugm-3
11-01-2016,13:00,121.32830,R,ugm-3,87.59298,R,ugm-3,273.62711,R,ugm-3
11-01-2016,14:00,108.17459,R,ugm-3,92.41391,R,ugm-3,258.27930,R,ugm-3
11-01-2016,15:00,101.50465,R,ugm-3,85.20379,R,ugm-3,240.84208,R,ugm-3
11-01-2016,16:00,211.54239,R,ugm-3,126.03088,R,ugm-3,450.39136,R,ugm-3
11-01-2016,17:00,159.85865,R,ugm-3,112.23841,R,ugm-3,357.35158,R,ugm-3
11-01-2016,18:00,108.02554,R,ugm-3,101.12296,R,ugm-3,266.75980,R,ugm-3
11-01-2016,19:00,42.14440,R,ugm-3,57.92054,R,ugm-3,122.54105,R,ugm-3
11-01-2016,20:00,29.62400,R,ugm-3,56.93369,R,ugm-3,102.35652,R,ugm-3
11-01-2016,21:00,18.40828,R,ugm-3,43.73457,R,ugm-3,71.96020,R,ugm-3
11-01-2016,22:00,13.26566,R,ugm-3,37.28706,R,ugm-3,57.62745,R,ugm-3
11-01-2016,23:00,9.46482,R,ugm-3,30.99254,R,ugm-3,45.50507,R,ugm-3
11-01-2016,24:00,7.52714,R,ugm-3,25.54383,R,ugm-3,37.08529,R,ugm-3
12-01-2016,01:00,4.97673,R,ugm-3,20.30438,R,ugm-3,27.93525,R,ugm-3
12-01-2016,02:00,2.83678,R,ugm-3,11.93273,R,ugm-3,16.28239,R,ugm-3
12-01-2016,03:00,3.62060,R,ugm-3,11.86850,R,ugm-3,17.42001,R,ugm-3
12-01-2016,04:00,7.35315,R,ugm-3,16.62058,R,ugm-3,27.89525,R,ugm-3
12-01-2016,05:00,18.62562,R,ugm-3,30.88353,R,ugm-3,59.44241,R,ugm-3
12-01-2016,06:00,36.20538,R,ugm-3,48.52443,R,ugm-3,104.03857,R,ugm-3
12-01-2016,07:00,42.58812,R,ugm-3,42.86821,R,ugm-3,108.16909,R,ugm-3
12-01-2016,08:00,29.18838,R,ugm-3,33.12498,R,ugm-3,77.87987,R,ugm-3
12-01-2016,09:00,34.52589,R,ugm-3,49.00447,R,ugm-3,101.94342,R,ugm-3
12-01-2016,10:00,22.61885,R,ugm-3,32.36285,R,ugm-3,67.04460,R,ugm-3
12-01-2016,11:00,24.44864,R,ugm-3,37.81778,R,ugm-3,75.30517,R,ugm-3
12-01-2016,12:00,31.57758,R,ugm-3,46.58133,R,ugm-3,94.99961,R,ugm-3
12-01-2016,13:00,64.98371,R,ugm-3,73.77756,R,ugm-3,173.41785,R,ugm-3
12-01-2016,14:00,53.56218,R,ugm-3,50.34513,R,ugm-3,132.47266,R,ugm-3
12-01-2016,15:00,39.78918,R,ugm-3,59.73072,R,ugm-3,120.73995,R,ugm-3
12-01-2016,16:00,43.55883,R,ugm-3,59.21865,R,ugm-3,126.00793,R,ugm-3
12-01-2016,17:00,55.76429,R,ugm-3,69.47682,R,ugm-3,154.98087,R,ugm-3
12-01-2016,18:00,64.53561,R,ugm-3,81.28938,R,ugm-3,180.24261,R,ugm-3
12-01-2016,19:00,46.28387,R,ugm-3,52.82564,R,ugm-3,123.79326,R,ugm-3
12-01-2016,20:00,31.72695,R,ugm-3,40.30642,R,ugm-3,88.95372,R,ugm-3
12-01-2016,21:00,22.76853,R,ugm-3,38.17972,R,ugm-3,73.09097,R,ugm-3
12-01-2016,22:00,16.90840,R,ugm-3,32.67841,R,ugm-3,58.60426,R,ugm-3
12-01-2016,23:00,14.22140,R,ugm-3,26.14292,R,ugm-3,47.94877,R,ugm-3
12-01-2016,24:00,9.96593,R,ugm-3,17.64281,R,ugm-3,32.92369,R,ugm-3
13-01-2016,01:00,6.47515,R,ugm-3,14.39348,R,ugm-3,24.32190,R,ugm-3
13-01-2016,02:00,6.52504,R,ugm-3,14.47635,R,ugm-3,24.48128,R,ugm-3
13-01-2016,03:00,5.93964,R,ugm-3,14.53404,R,ugm-3,23.64137,R,ugm-3
13-01-2016,04:00,8.03168,R,ugm-3,22.18787,R,ugm-3,34.50293,R,ugm-3
13-01-2016,05:00,35.37686,R,ugm-3,45.96407,R,ugm-3,100.20783,R,ugm-3
13-01-2016,06:00,96.56721,R,ugm-3,81.44955,R,ugm-3,229.51721,R,ugm-3
13-01-2016,07:00,71.38890,R,ugm-3,61.37213,R,ugm-3,170.83358,R,ugm-3
13-01-2016,08:00,64.10374,R,ugm-3,68.40200,R,ugm-3,166.69302,R,ugm-3
13-01-2016,09:00,79.49511,R,ugm-3,62.92364,R,ugm-3,184.81444,R,ugm-3
13-01-2016,10:00,43.14691,R,ugm-3,65.85311,R,ugm-3,132.01079,R,ugm-3
13-01-2016,11:00,46.06061,R,ugm-3,57.06470,R,ugm-3,127.68998,R,ugm-3
13-01-2016,12:00,42.54915,R,ugm-3,51.52801,R,ugm-3,116.76912,R,ugm-3
13-01-2016,13:00,58.16472,R,ugm-3,61.06708,R,ugm-3,150.25174,R,ugm-3
13-01-2016,14:00,50.58082,R,ugm-3,50.07355,R,ugm-3,127.62973,R,ugm-3
13-01-2016,15:00,54.76458,R,ugm-3,66.57986,R,ugm-3,150.55104,R,ugm-3
13-01-2016,16:00,109.60431,R,ugm-3,100.22313,R,ugm-3,268.28072,R,ugm-3
13-01-2016,17:00,96.86563,R,ugm-3,103.31421,R,ugm-3,251.83943,R,ugm-3
13-01-2016,18:00,96.71595,R,ugm-3,116.38519,R,ugm-3,264.68092,R,ugm-3
13-01-2016,19:00,65.44864,R,ugm-3,96.76246,R,ugm-3,197.11564,R,ugm-3
13-01-2016,20:00,26.48548,R,ugm-3,60.25762,R,ugm-3,100.86812,R,ugm-3
13-01-2016,21:00,21.81621,R,ugm-3,38.01428,R,ugm-3,71.46534,R,ugm-3
13-01-2016,22:00,10.83374,R,ugm-3,31.93253,R,ugm-3,48.54403,R,ugm-3
13-01-2016,23:00,10.16113,R,ugm-3,21.62273,R,ugm-3,37.20291,R,ugm-3
13-01-2016,24:00,2.83917,R,ugm-3,11.78817,R,ugm-3,16.14150,R,ugm-3
14-01-2016,01:00,2.64428,R,ugm-3,9.41843,R,ugm-3,13.47293,R,ugm-3
14-01-2016,02:00,2.14536,R,ugm-3,7.69718,R,ugm-3,10.98668,R,ugm-3
14-01-2016,03:00,3.74190,R,ugm-3,13.02891,R,ugm-3,18.76641,R,ugm-3
14-01-2016,04:00,5.31350,R,ugm-3,13.20533,R,ugm-3,21.35258,R,ugm-3
14-01-2016,05:00,21.74044,R,ugm-3,35.23351,R,ugm-3,68.56838,R,ugm-3
14-01-2016,06:00,23.91074,R,ugm-3,48.08647,R,ugm-3,84.74909,R,ugm-3
14-01-2016,07:00,31.88099,R,ugm-3,53.78906,R,ugm-3,102.67256,R,ugm-3
14-01-2016,08:00,38.50415,R,ugm-3,47.72405,R,ugm-3,106.76292,R,ugm-3
14-01-2016,09:00,48.71954,R,ugm-3,68.57030,R,ugm-3,143.27255,R,ugm-3
14-01-2016,10:00,70.87159,R,ugm-3,81.09908,R,ugm-3,189.76733,R,ugm-3
14-01-2016,11:00,65.29616,R,ugm-3,77.67858,R,ugm-3,177.79795,R,ugm-3
14-01-2016,12:00,69.97353,R,ugm-3,75.61929,R,ugm-3,182.91054,R,ugm-3
14-01-2016,13:00,44.00474,R,ugm-3,57.99608,R,ugm-3,125.46908,R,ugm-3
14-01-2016,14:00,46.17505,R,ugm-3,47.45008,R,ugm-3,118.25083,R,ugm-3
14-01-2016,15:00,45.98795,R,ugm-3,49.48163,R,ugm-3,119.99551,R,ugm-3
14-01-2016,16:00,78.24313,R,ugm-3,87.29941,R,ugm-3,207.27053,R,ugm-3
14-01-2016,17:00,70.04837,R,ugm-3,83.44381,R,ugm-3,190.84981,R,ugm-3
14-01-2016,18:00,52.38660,R,ugm-3,66.67740,R,ugm-3,147.00240,R,ugm-3
14-01-2016,19:00,34.79967,R,ugm-3,55.08813,R,ugm-3,108.44688,R,ugm-3
14-01-2016,20:00,21.92753,R,ugm-3,43.84884,R,ugm-3,77.47059,R,ugm-3
14-01-2016,21:00,21.89012,R,ugm-3,37.83164,R,ugm-3,71.39602,R,ugm-3
14-01-2016,22:00,17.43725,R,ugm-3,34.49385,R,ugm-3,61.23060,R,ugm-3
14-01-2016,23:00,11.33796,R,ugm-3,29.35018,R,ugm-3,46.73481,R,ugm-3
14-01-2016,24:00,9.95345,R,ugm-3,25.99996,R,ugm-3,41.26171,R,ugm-3
15-01-2016,01:00,8.14570,R,ugm-3,27.06124,R,ugm-3,39.55114,R,ugm-3
15-01-2016,02:00,10.64446,R,ugm-3,24.51634,R,ugm-3,40.83761,R,ugm-3
15-01-2016,03:00,61.39429,R,ugm-3,58.64203,R,ugm-3,152.77863,R,ugm-3
15-01-2016,04:00,70.68979,R,ugm-3,54.57845,R,ugm-3,162.96795,R,ugm-3
15-01-2016,05:00,48.08903,R,ugm-3,55.77041,R,ugm-3,129.50589,R,ugm-3
15-01-2016,06:00,136.61958,R,ugm-3,100.84039,R,ugm-3,310.32082,R,ugm-3
15-01-2016,07:00,135.15774,R,ugm-3,103.14208,R,ugm-3,310.38106,R,ugm-3
15-01-2016,08:00,166.04245,R,ugm-3,116.13800,R,ugm-3,370.73287,R,ugm-3
15-01-2016,09:00,169.19094,R,ugm-3,118.06245,R,ugm-3,377.48495,R,ugm-3
15-01-2016,10:00,111.76931,R,ugm-3,98.30680,R,ugm-3,269.68402,R,ugm-3